[[{"header":{"parameterUnit":"m.s-1","parameterCategory":1,"la1":30.2991,"la2":30.254,"lo1":-89.0895,"lo2":-89.0444,"dy":0.0017,"dx":0.0017,"nx":28,"ny":28,"refTime":"2024-04-15T03:00:00:Z","depth":0,"parameterNumber":2,"parameterNumberName":"U-component_of_WINDS"},"data":[0,0,0,0,0,0,0,0,0,0,0,0,0,0,0,0,0,0,0,0,0,0,0,0,0,0,0,0,0,0,0,0,0,0,0,0,0,0,0,0,0,0,0,0,0,0,0,0,0,0,0,0,0,0,0,0,0,0,-4.0553,-4.0553,0,-4.0579,-4.0579,-4.0579,-4.0521,-4.0519,-4.0517,-4.0515,-4.0538,-4.054,-4.0543,0,0,0,0,0,0,0,0,0,0,0,0,0,-4.0451,-4.0453,-4.0553,-4.0553,-4.0554,-4.0579,-4.0579,-4.0579,-4.0521,-4.0519,-4.0517,-4.0514,-4.0537,-4.054,-4.0543,0,0,0,0,0,0,0,0,0,0,0,0,0,-4.0488,-4.0454,-4.0553,-4.0528,-4.0526,-4.0579,-4.0579,-4.0579,-4.0522,-4.0519,-4.0516,-4.0513,-4.0536,-4.054,-4.0543,-4.0621,0,0,-4.0554,-4.0555,0,0,0,0,0,0,0,0,-4.0486,-4.0491,-4.0531,-4.053,-4.0527,-4.0544,-4.0551,-4.0593,-4.0522,-4.0523,-4.0515,-4.0512,-4.0542,-4.0545,-4.0556,-4.0622,-4.0623,-4.0554,-4.0556,-4.0558,-4.0559,0,0,0,0,0,0,0,-4.0483,-4.049,-4.0563,-4.0532,-4.053,-4.0514,-4.0516,-4.0559,-4.0548,-4.0523,-4.0519,-4.0523,-4.054,-4.0552,-4.0556,-4.0623,-4.0554,-4.0557,-4.0559,-4.0561,-4.0753,-4.0756,0,0,0,0,0,0,-4.0484,-4.0488,-4.0562,-4.0564,-4.0499,-4.0518,-4.0521,-4.0541,-4.0547,-4.0545,-4.0525,-4.052,-4.0548,-4.0552,-4.0556,-4.0646,-4.0558,-4.0561,-4.0563,-4.075,-4.0754,-4.0757,0,0,0,0,0,0,-4.0482,-4.0491,-4.0561,-4.0525,-4.0533,-4.0523,-4.0547,-4.0543,-4.0555,-4.0549,-4.0546,-4.0539,-4.0546,-4.0551,-4.0605,-4.0646,-4.0563,-4.0566,-4.0747,-4.0751,-4.0755,-4.0827,0,0,0,0,0,0,-4.048,-4.0491,-4.0521,-4.0526,-4.0535,-4.0611,-4.0549,-4.0546,-4.0562,-4.0555,-4.0562,-4.056,-4.0544,-4.06,-4.0609,-4.0649,-4.0569,-4.0743,-4.0749,-4.0754,-4.0821,-4.0833,-4.0844,0,0,0,0,0,-4.0476,-4.0539,-4.0523,-4.0532,-4.0572,-4.0613,-4.0618,-4.0599,-4.0565,-4.0595,-4.0591,-4.056,-4.0641,-4.0606,-4.0615,-4.0657,-4.074,-4.0747,-4.0754,-4.0815,-4.0831,-4.0844,0,0,0,0,0,0,-4.0537,-4.0539,-4.0521,-4.0588,-4.0601,-4.0603,-4.0639,-4.0616,-4.0638,-4.063,-4.0605,-4.0607,-4.0666,-4.0667,-4.0629,-4.0733,-4.0685,-4.0694,-4.0729,-4.0743,-4.0754,-4.0751,-4.0572,0,0,0,0,0,-4.0559,-4.0593,-4.0593,-4.0652,-4.066,-4.0649,-4.0666,-4.0651,-4.0662,-4.0667,-4.0667,-4.0679,-4.0707,-4.0726,-4.0751,-4.0822,-4.0821,-4.0856,-4.0867,-4.0877,-4.0884,-4.092,-4.0934,-4.0779,-4.0779,-4.0779,0,0,-4.0603,-4.0609,-4.0631,-4.0665,-4.0673,-4.0707,-4.0654,-4.0693,-4.0717,-4.0673,-4.0723,-4.0724,-4.0735,-4.0798,-4.0825,-4.0801,-4.0927,-4.0885,-4.0893,-4.0895,-4.0928,-4.0943,-4.0956,-4.0784,-4.0783,-4.0782,0,0,-4.0701,-4.071,-4.0759,-4.0769,-4.0783,-4.0776,-4.0788,-4.0794,-4.0793,-4.0844,-4.0811,-4.084,-4.089,-4.0899,-4.091,-4.1014,-4.0985,-4.1023,-4.1082,-4.1118,-4.113,-4.114,-4.1175,-4.1188,-4.103,-4.1031,-4.1031,0,-4.0753,-4.0805,-4.0787,-4.0829,-4.0844,-4.0807,-4.0856,-4.0867,-4.0888,-4.0898,-4.0872,-4.0933,-4.0938,-4.1001,-4.1027,-4.1038,-4.1049,-4.102,-4.113,-4.114,-4.115,-4.1182,-4.1196,-4.1035,-4.1034,-4.1034,-4.1033,0,-4.0868,-4.0905,-4.0943,-4.0966,-4.0985,-4.1031,-4.1019,-4.1041,-4.1025,-4.102,-4.1072,-4.1078,-4.1103,-4.1118,-4.1102,-4.1179,-4.1163,-4.1134,-4.1085,-4.1169,-4.1199,-4.1212,-4.1041,-4.1039,-4.1038,-4.1037,0,0,-4.1001,-4.1016,-4.1029,-4.1039,-4.1053,-4.108,-4.1124,-4.115,-4.1169,-4.1186,-4.122,-4.1264,-4.1237,-4.125,-4.1235,-4.1267,-4.1346,-4.1233,-4.1233,-4.1251,-4.1429,-4.1449,-4.1464,-4.1329,-4.1331,-4.1333,-4.1427,0,-4.1096,-4.1172,-4.1158,-4.1231,-4.1264,-4.1231,-4.1269,-4.1281,-4.1278,-4.1305,-4.1302,-4.1332,-4.1296,-4.1303,-4.1333,-4.133,-4.1381,-4.1324,-4.1359,-4.136,-4.1353,-4.148,-4.1501,-4.1589,-4.1439,-4.1441,-4.1443,0,-4.1216,-4.1238,-4.1315,-4.1324,-4.1337,-4.1371,-4.1394,-4.1421,-4.1434,-4.143,-4.1446,-4.1425,-4.1468,-4.1421,-4.1478,-4.1439,-4.1453,-4.1454,-4.1457,-4.1457,-4.1404,-4.148,-4.1617,-4.1629,-4.1462,-4.146,-4.1459,0,-4.1302,-4.1352,-4.1404,-4.1414,-4.1426,-4.145,-4.1456,-4.1467,-4.1484,-4.1504,-4.1515,-4.154,-4.1552,-4.1572,-4.1558,-4.1526,-4.1617,-4.157,-4.1613,-4.1613,-4.163,-4.1629,-4.1768,-4.1645,-4.1645,-4.1645,-4.1645,0,-4.1407,-4.1455,-4.1443,-4.1474,-4.1527,-4.1511,-4.1563,-4.1565,-4.1575,-4.1605,-4.1579,-4.1608,-4.159,-4.1618,-4.1608,-4.1656,-4.1662,-4.1659,-4.1655,-4.1659,-4.1659,-4.1665,-4.1658,-4.1648,-4.1648,-4.1647,-4.1646,0,-4.1511,-4.1505,-4.1559,-4.1568,-4.1571,-4.1609,-4.1615,-4.1644,-4.1641,-4.168,-4.1688,-4.1682,-4.1713,-4.1703,-4.1736,-4.173,-4.1789,-4.1779,-4.1785,-4.1781,-4.1824,-4.1819,-4.197,-4.1987,-4.1856,-4.1857,-4.1858,0,-4.1576,-4.1613,-4.1625,-4.1645,-4.1653,-4.1685,-4.1702,-4.1689,-4.1708,-4.1726,-4.1753,-4.1782,-4.1804,-4.1855,-4.1853,-4.1878,-4.1867,-4.1918,-4.187,-4.1873,-4.1864,-4.1861,-4.1863,-4.1926,-4.1928,-4.1929,-4.193,0,-4.1693,-4.1689,-4.1716,-4.1743,-4.1765,-4.1785,-4.1802,-4.1819,-4.1807,-4.1829,-4.1862,-4.1879,-4.1914,-4.1942,-4.1966,-4.197,-4.1947,-4.1946,-4.1956,-4.1959,-4.196,-4.1958,-4.1808,-4.1941,-4.194,-4.1939,-4.1939,-4.1938,-4.1778,-4.1808,-4.1822,-4.1853,-4.1865,-4.1882,-4.191,-4.1911,-4.1938,-4.1966,-4.1956,-4.1993,-4.2005,-4.2034,-4.2042,-4.207,-4.205,-4.2066,-4.207,-4.2073,-4.2077,-4.1959,-4.2075,-4.2074,-4.2074,-4.2074,-4.2073,0,-4.189,-4.1898,-4.1928,-4.1953,-4.1978,-4.1957,-4.1976,-4.1997,-4.203,-4.2044,-4.2067,-4.2104,-4.2132,-4.2134,-4.2159,-4.2181,-4.2171,-4.2188,-4.2184,-4.2186,-4.2095,-4.2082,-4.2196,-4.2196,-4.2196,-4.2196,-4.2196,-4.2196,-4.1952,-4.2001,-4.1999,-4.2055,-4.2062,-4.2099,-4.2111,-4.2126,-4.2137,-4.218,-4.2204,-4.2205,-4.2214,-4.2241,-4.2265,-4.2265,-4.2274,-4.2295,-4.229,-4.2204,-4.2192,-4.218,-4.2168,-4.2298,-4.2298,-4.2378,-4.2378,-4.2379]},{"header":{"parameterUnit":"m.s-1","parameterCategory":1,"la1":30.2991,"la2":30.254,"lo1":-89.0895,"lo2":-89.0444,"dy":0.0017,"dx":0.0017,"nx":28,"ny":28,"refTime":"2024-04-15T03:00:00:Z","depth":0,"parameterNumber":3,"parameterNumberName":"V-component_of_WINDS"},"data":[0,0,0,0,0,0,0,0,0,0,0,0,0,0,0,0,0,0,0,0,0,0,0,0,0,0,0,0,0,0,0,0,0,0,0,0,0,0,0,0,0,0,0,0,0,0,0,0,0,0,0,0,0,0,0,0,0,0,3.748,3.7481,0,3.7504,3.7504,3.7505,3.7466,3.7465,3.7464,3.7463,3.7485,3.7487,3.7488,0,0,0,0,0,0,0,0,0,0,0,0,0,3.7402,3.7403,3.748,3.7481,3.7481,3.7504,3.7504,3.7505,3.7467,3.7465,3.7463,3.7462,3.7484,3.7486,3.7489,0,0,0,0,0,0,0,0,0,0,0,0,0,3.7432,3.7404,3.748,3.7465,3.7464,3.7504,3.7504,3.7505,3.7467,3.7465,3.7463,3.7461,3.7484,3.7486,3.7489,3.7545,0,0,3.7497,3.7498,0,0,0,0,0,0,0,0,3.743,3.7435,3.7467,3.7466,3.7465,3.748,3.7485,3.7518,3.7467,3.7466,3.7462,3.746,3.7485,3.7487,3.7496,3.7546,3.7547,3.7497,3.7499,3.75,3.7501,0,0,0,0,0,0,0,3.7428,3.7433,3.749,3.7467,3.7466,3.7457,3.7459,3.7491,3.7486,3.7466,3.7463,3.7466,3.7484,3.7493,3.7496,3.7547,3.7497,3.75,3.7501,3.7503,3.7647,3.7649,0,0,0,0,0,0,3.7428,3.7432,3.7489,3.749,3.7442,3.746,3.7462,3.7477,3.7485,3.7485,3.7468,3.7465,3.749,3.7493,3.7497,3.7564,3.75,3.7503,3.7504,3.7645,3.7647,3.765,0,0,0,0,0,0,3.7426,3.7433,3.7488,3.7461,3.7467,3.7463,3.7481,3.7479,3.7488,3.7487,3.7486,3.7479,3.7488,3.7493,3.7534,3.7565,3.7504,3.7506,3.7642,3.7646,3.7649,3.7699,0,0,0,0,0,0,3.7424,3.7433,3.7454,3.7461,3.7468,3.7525,3.7482,3.7481,3.7493,3.7489,3.7497,3.7496,3.7487,3.753,3.7537,3.7567,3.7509,3.7639,3.7644,3.7648,3.7695,3.7704,3.7712,0,0,0,0,0,3.7422,3.7466,3.7455,3.7462,3.7495,3.7527,3.7531,3.7519,3.7496,3.7517,3.7517,3.7496,3.7561,3.7535,3.7542,3.7574,3.7637,3.7643,3.7647,3.7691,3.7702,3.7711,0,0,0,0,0,0,3.7461,3.7467,3.7455,3.7503,3.7515,3.752,3.7546,3.7531,3.7549,3.7544,3.7529,3.7531,3.7576,3.7579,3.755,3.763,3.7595,3.7602,3.7626,3.7636,3.7645,3.7643,3.7511,0,0,0,0,0,3.7476,3.7502,3.7505,3.7548,3.7554,3.755,3.7563,3.7554,3.7565,3.7569,3.7572,3.7583,3.7606,3.7621,3.7642,3.7695,3.7697,3.7721,3.773,3.7736,3.7742,3.7772,3.7783,3.7666,3.7666,3.7666,0,0,3.7506,3.7512,3.7529,3.7556,3.7564,3.7591,3.7554,3.7584,3.7604,3.7574,3.7613,3.7616,3.7627,3.7675,3.7697,3.7679,3.7775,3.7743,3.7748,3.775,3.7779,3.779,3.78,3.767,3.7669,3.7668,0,0,3.7575,3.7582,3.7619,3.7628,3.7642,3.7639,3.7648,3.7656,3.7657,3.7697,3.7676,3.7699,3.7739,3.7749,3.7759,3.7835,3.7817,3.7842,3.7886,3.7915,3.7925,3.7933,3.7961,3.7971,3.7848,3.7848,3.7848,0,3.761,3.765,3.7639,3.7672,3.7685,3.7661,3.7699,3.7708,3.7727,3.7737,3.7718,3.7768,3.7774,3.7825,3.7844,3.7853,3.7863,3.7841,3.7924,3.7932,3.794,3.7966,3.7977,3.7851,3.7851,3.7851,3.785,0,3.7694,3.7722,3.7751,3.7772,3.7788,3.7823,3.7818,3.7836,3.7826,3.7826,3.7867,3.7874,3.7897,3.7909,3.7898,3.7959,3.7948,3.7927,3.7892,3.7954,3.7979,3.7989,3.7856,3.7854,3.7854,3.7853,0,0,3.7785,3.7803,3.7813,3.7823,3.7838,3.786,3.7895,3.7918,3.7934,3.7949,3.7978,3.8014,3.7995,3.8007,3.7998,3.8024,3.8086,3.8,3.8,3.8016,3.8154,3.817,3.8182,3.8075,3.8076,3.8078,3.8154,0,3.7854,3.7915,3.7908,3.7966,3.7993,3.7972,3.8003,3.8015,3.8016,3.8039,3.804,3.8066,3.8039,3.8047,3.8072,3.8073,3.8113,3.8068,3.8102,3.8103,3.8099,3.8195,3.8211,3.8282,3.8163,3.8165,3.8166,0,3.7942,3.7963,3.8024,3.8037,3.8048,3.8075,3.8098,3.812,3.8135,3.8134,3.8149,3.8136,3.8172,3.8137,3.8186,3.8155,3.8169,3.8172,3.8175,3.8177,3.8138,3.82,3.8304,3.8315,3.8181,3.818,3.8179,0,3.8004,3.8047,3.8089,3.8099,3.8114,3.8135,3.8142,3.8154,3.817,3.819,3.82,3.8223,3.8236,3.8254,3.8249,3.8224,3.83,3.8264,3.83,3.8301,3.8316,3.8315,3.8424,3.8326,3.8325,3.8325,3.8325,0,3.8082,3.812,3.8118,3.8144,3.8187,3.8179,3.8222,3.8226,3.8238,3.8265,3.8249,3.8274,3.8266,3.8291,3.8287,3.8329,3.8335,3.8335,3.8334,3.8337,3.8337,3.8345,3.834,3.8328,3.8327,3.8327,3.8326,0,3.8158,3.8157,3.8203,3.8215,3.8219,3.8251,3.8261,3.8286,3.8287,3.8322,3.8329,3.8331,3.836,3.8357,3.8389,3.8387,3.8439,3.8432,3.8435,3.8433,3.847,3.8467,3.8588,3.8604,3.8495,3.8496,3.8497,0,3.8207,3.8236,3.8253,3.8271,3.828,3.8308,3.8325,3.8319,3.8337,3.8358,3.838,3.8409,3.8431,3.8479,3.8483,3.8508,3.8501,3.8542,3.8505,3.8508,3.8503,3.8501,3.8504,3.8549,3.855,3.8551,3.8552,0,3.8295,3.8294,3.8319,3.8345,3.8366,3.8386,3.8404,3.8419,3.8415,3.8437,3.8468,3.8485,3.852,3.8548,3.8573,3.858,3.8566,3.8564,3.8574,3.8577,3.8578,3.8579,3.8455,3.8561,3.856,3.856,3.8559,3.8559,3.8359,3.8385,3.8402,3.8431,3.8445,3.8463,3.8488,3.8493,3.8519,3.8547,3.8543,3.8578,3.8593,3.8625,3.8636,3.8663,3.8648,3.8662,3.8666,3.8669,3.8674,3.8575,3.8667,3.8667,3.8667,3.8667,3.8667,0,3.8447,3.8457,3.8484,3.8512,3.8535,3.8521,3.8541,3.8562,3.8593,3.861,3.8633,3.8669,3.8698,3.8705,3.8733,3.8754,3.8748,3.8761,3.8759,3.8761,3.8685,3.8674,3.8765,3.8765,3.8765,3.8765,3.8765,3.8765,3.8495,3.8539,3.8541,3.8592,3.8602,3.8638,3.8651,3.8667,3.8681,3.8723,3.8747,3.8752,3.8766,3.8795,3.8821,3.8822,3.8833,3.8849,3.8848,3.8776,3.8767,3.8757,3.8747,3.8852,3.8852,3.8922,3.8923,3.8923]}]]